weather.gov     
National Weather Service

Terminal Aerodrome Forecast
NWS Homepage
This page is being discontinued on March 12, 2014.
The same data is available at this site. Please update your bookmarks.
Thank you, and we apologize for the inconvenience.
Please send an email to SR-SRH.Webmaster@noaa.gov with any concerns.


Current Version
Previous Version:    01  02  03  04  05  06  07  08  09  10  11  12  13  14  15  16  17  18  19  20  21  22  23  
[Printable]
922
FTUS42 TJSJ 021600 AAA
TAFJMZ
TAF AMD
TJMZ 021623Z 0216/0312 27007KT P6SM VCTS BKN040CB
      TEMPO 0216/0220 3SM TSRA BKN030CB
     FM022000 24014KT P6SM VCTS SCT025CB
     FM022200 06006KT P6SM SCT025 SCT040
      AMD NOT SKED 0223/0311=


U.S. Dept. of Commerce
NOAA National Weather Service
1325 East West Highway
Silver Spring, MD 20910
E-mail: w-nws.webmaster@noaa.gov
Page last modified: May 16, 2007
NATIONAL WEATHER SERVICE: for Safety, for Work, for Fun - FOR LIFE